Flag for Canada Weather past 2 weeks in Glace Bay, Nova Scotia, Canada

Now
54 °F

Overcast.


Feels Like: 51 °F
Forecast: 54 / 72 °F
Wind: 8 mph from West

Location: Sydney

Current Time: Sep 5, 2015 at 3:37:44 AM

Latest Report: Sep 5, 2015 at 3:00 AM


Visibility: 15 mi

Pressure: 30.19 "Hg

Humidity: 82%

Dew point: 48 °F

Location of Glace BayLocation

Historic Weather in Glace Bay — Graph

°F

Glace Bay temperature yesterday

Maximum temperature yesterday: 63 °F (at 12:00 PM)
Minimum temperature yesterday: 48 °F (at 3:00 AM)
Average temperature yesterday: 57 °F

Past Weeks' High & Low Weather Summary

 TemperatureHumidityPressure
High81 °F (Aug 23, 1:00 PM)100% (Aug 21, 2:00 AM)30.31 "Hg (Aug 21, 2:00 AM)
Low48 °F (Sep 4, 3:00 AM)46% (Sep 2, 1:00 PM)29.54 "Hg (Sep 1, 3:00 AM)
Average66 °F86%29.98 "Hg
* Reported Aug 21 2:00 AM — Sep 5 2:00 AM, Glace Bay, Weather by CustomWeather, © 2015

Note: Actual official high and low records may vary slightly from our data, if they occured in-between our weather recording intervals... More about our weather records

Advertising

Glace Bay weather history for previous 24 hours

 ConditionsComfort  
Time TempWeatherWind HumidityBarometerVisibility
2:00 AM
Sat, Sep 5
54 °FOvercast.6 mph82%30.19 "Hg15 mi
1:00 AM55 °FOvercast.6 mph77%30.20 "Hg15 mi
12:00 AM55 °FOvercast.7 mph77%30.20 "Hg15 mi
11:00 PM
Fri, Sep 4
55 °FOvercast.6 mph77%30.20 "Hg15 mi
10:00 PM55 °FOvercast.7 mph77%30.20 "Hg15 mi
9:00 PM57 °FOvercast.7 mph67%30.19 "Hg15 mi
8:00 PM57 °FPartly sunny.13 mph67%30.16 "Hg15 mi
7:00 PM57 °FScattered clouds.16 mph67%30.15 "Hg15 mi
6:00 PM59 °FPartly sunny.15 mph63%30.15 "Hg15 mi
5:00 PM61 °FPassing clouds.15 mph63%30.14 "Hg15 mi
4:00 PM63 °FPassing clouds.16 mph59%30.12 "Hg15 mi
3:00 PM63 °FScattered clouds.14 mph59%30.11 "Hg15 mi
2:00 PM63 °FScattered clouds.14 mph59%30.11 "Hg15 mi
1:00 PM61 °FPartly sunny.16 mph63%30.10 "Hg15 mi
12:00 PM63 °FScattered clouds.13 mph64%30.09 "Hg15 mi
11:00 AM61 °FBroken clouds.14 mph63%30.09 "Hg15 mi
10:00 AM61 °FPartly sunny.13 mph68%30.08 "Hg15 mi
9:00 AM61 °FScattered clouds.14 mph72%30.05 "Hg15 mi
8:00 AM57 °FScattered clouds.7 mph82%30.03 "Hg15 mi
7:00 AM52 °FPassing clouds.9 mph88%30.00 "Hg15 mi
6:00 AM50 °FPassing clouds.8 mph94%29.98 "Hg15 mi
5:00 AM48 °FPassing clouds.7 mph87%29.96 "Hg15 mi
3:00 AM48 °FPassing clouds.10 mph94%29.94 "Hg15 mi
Weather by CustomWeather, © 2015

See weather overviewHow to use our weather pages